Home   Weather   Chongqing   Past weeks

Flag for China Past Weather in Chongqing, Chongqing Municipality, China — Yesterday and Last 2 Weeks

Now
64 °F

Sunny.


Feels Like: 64 °F
Forecast: 64 / 84 °F
Wind: 3 mph from North

Location: Chongqing Airport

Current Time: Apr 30, 2017 at 9:23:25 am

Latest Report: Apr 30, 2017 at 8:00 am


Visibility: 10 mi

Pressure: 29.83 "Hg

Humidity: 83%

Dew Point: 59 °F

Location of ChongqingLocation

Past Weather in Chongqing — Graph

°F

Chongqing Temperature Yesterday

Maximum temperature yesterday: 81 °F (at 4:00 pm)
Minimum temperature yesterday: 61 °F (at 2:00 am)
Average temperature yesterday: 70 °F

High & Low Weather Summary for the Past Weeks

 TemperatureHumidityPressure
High88 °F (Apr 19, 3:00 pm)94% (Apr 16, 5:00 pm)30.21 "Hg (Apr 16, 5:00 pm)
Low55 °F (Apr 22, 6:00 am)23% (Apr 18, 5:00 pm)29.56 "Hg (Apr 19, 5:00 pm)
Average67 °F68%29.93 "Hg
* Reported Apr 15 8:00 am — Apr 30 8:00 am, Chongqing, Weather by CustomWeather, © 2017

Note: Actual official high and low records may vary slightly from our data, if they occured in-between our weather recording intervals... More about our weather records

Advertising

Chongqing Weather History for the Previous 24 Hours

Scroll right to see more
 ConditionsComfort  
Time TempWeatherWind HumidityBarometerVisibility
8:00 am
Sun, Apr 30
64 °FSunny.3 mph83%29.83 "Hg10 mi
7:00 am64 °FSprinkles. Passing clouds.3 mph78%29.80 "HgN/A
6:00 am63 °FClear.3 mph83%29.80 "Hg10 mi
5:00 am63 °FClear.3 mph83%29.80 "Hg5 mi
4:00 am63 °FLight rain. Clear.10 mph83%29.80 "Hg4 mi
3:00 am64 °FLight rain. Clear.6 mph83%29.83 "Hg5 mi
2:00 am68 °FPassing clouds.3 mph60%29.83 "HgN/A
1:00 am68 °FClear.1 mph56%29.86 "Hg10 mi
12:00 am70 °FClear.1 mph57%29.86 "Hg10 mi
11:00 pm
Sat, Apr 29
70 °FClear.3 mph53%29.86 "Hg10 mi
10:00 pm72 °FClear.3 mph53%29.86 "Hg10 mi
9:00 pm73 °FClear.1 mph44%29.86 "Hg10 mi
8:00 pm75 °FClear.1 mph44%29.83 "Hg10 mi
7:00 pm77 °FSunny.3 mph42%29.83 "Hg10 mi
6:00 pm79 °FPassing clouds.3 mph39%29.83 "HgN/A
5:00 pm79 °FPassing clouds.1 mph37%29.83 "HgN/A
4:00 pm81 °FPassing clouds.1 mph34%29.86 "HgN/A
3:00 pm79 °FPassing clouds.3 mph37%29.89 "HgN/A
2:00 pm79 °FPassing clouds.3 mph37%29.92 "HgN/A
1:00 pm75 °FPassing clouds.3 mph44%29.95 "HgN/A
12:00 pm73 °FPassing clouds.3 mph53%29.98 "HgN/A
11:00 am72 °FPassing clouds.6 mph57%30.01 "HgN/A
10:00 am70 °FPassing clouds.3 mph64%30.01 "HgN/A
9:00 am66 °FSunny.1 mph68%30.01 "Hg10 mi
Weather by CustomWeather, © 2017

See weather overviewHow to use our weather pages